Hourly Weather Dzieglewo

Today, 8 May, Saturday

Time Temperature Precipitation Wind Pressure Humidity
00:00 +2°C° 0.7 mm 5 mps 751 mmHg 94%
01:00 +2°C° 0.7 mm 5 mps 752 mmHg 94%
02:00 +2°C° 0 mm 5 mps 752 mmHg 95%
03:00 +1°C° 0 mm 5 mps 753 mmHg 95%
04:00 0°C° 0 mm 5 mps 753 mmHg 96%
05:00 +1°C° 0 mm 5 mps 754 mmHg 93%
06:00 +2°C° 0 mm 5 mps 754 mmHg 90%
07:00 +3°C° 0 mm 6 mps 755 mmHg 87%
08:00 +4°C° 0.1 mm 6 mps 755 mmHg 80%
09:00 +5°C° 0.1 mm 6 mps 755 mmHg 73%
10:00 +8°C° 0.1 mm 6 mps 755 mmHg 66%
11:00 +8°C° 0.2 mm 6 mps 755 mmHg 65%
12:00 +8°C° 0.2 mm 6 mps 756 mmHg 65%
13:00 +8°C° 0.2 mm 7 mps 756 mmHg 65%
14:00 +9°C° 0.1 mm 6 mps 756 mmHg 61%
15:00 +9°C° 0.1 mm 6 mps 756 mmHg 58%
16:00 +10°C° 0.1 mm 5 mps 756 mmHg 54%
17:00 +10°C° 0.1 mm 4 mps 756 mmHg 60%
18:00 +8°C° 0.1 mm 3 mps 756 mmHg 66%
19:00 +7°C° 0.1 mm 2 mps 757 mmHg 72%
20:00 +6°C° 0 mm 2 mps 757 mmHg 73%
21:00 +6°C° 0 mm 1 mps 757 mmHg 75%
22:00 +5°C° 0 mm 1 mps 758 mmHg 76%
23:00 +5°C° 0 mm 1 mps 758 mmHg 77%

Tomorrow, 9 May, Sunday

Time Temperature Precipitation Wind Pressure Humidity
00:00 +4°C° 0 mm 2 mps 758 mmHg 77%
01:00 +4°C° 0 mm 2 mps 758 mmHg 78%
02:00 +3°C° 0 mm 3 mps 758 mmHg 78%
03:00 +3°C° 0 mm 3 mps 758 mmHg 79%
04:00 +3°C° 0 mm 3 mps 758 mmHg 80%
05:00 +4°C° 0 mm 3 mps 758 mmHg 76%
06:00 +6°C° 0 mm 4 mps 758 mmHg 72%
07:00 +8°C° 0 mm 5 mps 758 mmHg 68%
08:00 +10°C° 0 mm 5 mps 758 mmHg 64%
09:00 +13°C° 0 mm 5 mps 757 mmHg 60%
10:00 +14°C° 0 mm 6 mps 757 mmHg 56%
11:00 +15°C° 0 mm 6 mps 757 mmHg 54%
12:00 +16°C° 0 mm 6 mps 757 mmHg 52%
13:00 +17°C° 0 mm 6 mps 756 mmHg 51%
14:00 +17°C° 0 mm 6 mps 756 mmHg 53%
15:00 +19°C° 0 mm 5 mps 756 mmHg 55%
16:00 +19°C° 0 mm 5 mps 756 mmHg 57%
17:00 +17°C° 0 mm 4 mps 756 mmHg 64%
18:00 +15°C° 0 mm 4 mps 756 mmHg 71%
19:00 +13°C° 0 mm 4 mps 756 mmHg 77%
20:00 +12°C° 0 mm 4 mps 756 mmHg 79%
21:00 +11°C° 0 mm 4 mps 756 mmHg 80%
22:00 +11°C° 0 mm 4 mps 756 mmHg 81%
23:00 +10°C° 0 mm 4 mps 756 mmHg 83%

Day after tomorrow, 10 May, Monday

Time Temperature Precipitation Wind Pressure Humidity
00:00 +8°C° 0 mm 4 mps 756 mmHg 86%
01:00 +9°C° 0 mm 3 mps 756 mmHg 88%
02:00 +7°C° 0 mm 4 mps 756 mmHg 88%
03:00 +7°C° 0 mm 4 mps 756 mmHg 88%
04:00 +7°C° 0 mm 4 mps 755 mmHg 88%
05:00 +8°C° 0 mm 4 mps 755 mmHg 82%
06:00 +10°C° 0 mm 5 mps 755 mmHg 77%
07:00 +11°C° 0 mm 6 mps 756 mmHg 71%
08:00 +14°C° 0 mm 6 mps 755 mmHg 67%
09:00 +16°C° 0 mm 7 mps 755 mmHg 63%
10:00 +17°C° 0 mm 7 mps 755 mmHg 58%
11:00 +20°C° 0 mm 7 mps 755 mmHg 57%
12:00 +21°C° 0 mm 7 mps 754 mmHg 55%
13:00 +22°C° 0 mm 8 mps 754 mmHg 54%
14:00 +22°C° 0 mm 7 mps 754 mmHg 56%
15:00 +22°C° 0 mm 7 mps 754 mmHg 58%
16:00 +22°C° 0 mm 6 mps 754 mmHg 60%
17:00 +21°C° 0 mm 6 mps 754 mmHg 64%
18:00 +19°C° 0 mm 6 mps 754 mmHg 69%
19:00 +17°C° 0 mm 6 mps 754 mmHg 73%
20:00 +16°C° 0 mm 5 mps 754 mmHg 77%
21:00 +15°C° 0 mm 5 mps 754 mmHg 81%
22:00 +14°C° 0 mm 4 mps 754 mmHg 84%
23:00 +13°C° 0 mm 4 mps 754 mmHg 87%

11 May, Tuesday

Time Temperature Precipitation Wind Pressure Humidity
00:00 +13°C° 0 mm 4 mps 754 mmHg 89%
01:00 +12°C° 0 mm 4 mps 754 mmHg 91%
02:00 +12°C° 0 mm 5 mps 754 mmHg 90%
03:00 +12°C° 0 mm 5 mps 753 mmHg 90%
04:00 +10°C° 0 mm 5 mps 753 mmHg 89%
05:00 +13°C° 0 mm 6 mps 753 mmHg 85%
06:00 +14°C° 0 mm 6 mps 753 mmHg 80%
07:00 +15°C° 0 mm 7 mps 753 mmHg 76%
08:00 +17°C° 0 mm 7 mps 753 mmHg 71%
09:00 +20°C° 0 mm 7 mps 753 mmHg 66%
10:00 +21°C° 0 mm 8 mps 753 mmHg 61%
11:00 +22°C° 0 mm 8 mps 753 mmHg 60%
12:00 +24°C° 0 mm 8 mps 752 mmHg 58%
13:00 +26°C° 0 mm 8 mps 752 mmHg 57%
14:00 +24°C° 0 mm 8 mps 752 mmHg 58%
15:00 +24°C° 0 mm 8 mps 752 mmHg 59%
16:00 +24°C° 0 mm 8 mps 752 mmHg 60%
17:00 +22°C° 0 mm 8 mps 751 mmHg 64%
18:00 +21°C° 0 mm 8 mps 751 mmHg 67%
19:00 +18°C° 0 mm 8 mps 751 mmHg 71%
20:00 +17°C° 0 mm 8 mps 751 mmHg 70%
21:00 +16°C° 0 mm 7 mps 751 mmHg 69%
22:00 +15°C° 0 mm 7 mps 751 mmHg 69%
23:00 +15°C° 0 mm 7 mps 751 mmHg 69%

12 May, Wednesday

Time Temperature Precipitation Wind Pressure Humidity
00:00 +14°C° 0 mm 7 mps 751 mmHg 70%
01:00 +12°C° 0 mm 7 mps 751 mmHg 70%
02:00 +13°C° 0 mm 6 mps 751 mmHg 70%
03:00 +11°C° 0 mm 6 mps 751 mmHg 69%
04:00 +10°C° 0 mm 6 mps 751 mmHg 68%
05:00 +11°C° 0 mm 6 mps 751 mmHg 69%
06:00 +13°C° 0 mm 6 mps 751 mmHg 70%
07:00 +14°C° 0 mm 7 mps 750 mmHg 71%
08:00 +16°C° 0 mm 7 mps 750 mmHg 67%
09:00 +18°C° 0 mm 8 mps 750 mmHg 63%
10:00 +21°C° 0 mm 8 mps 750 mmHg 59%
11:00 +21°C° 0 mm 8 mps 750 mmHg 58%
12:00 +22°C° 0 mm 8 mps 750 mmHg 58%
13:00 +23°C° 0 mm 8 mps 750 mmHg 57%
14:00 +23°C° 0 mm 8 mps 749 mmHg 58%
15:00 +22°C° 0 mm 8 mps 749 mmHg 59%
16:00 +22°C° 0 mm 8 mps 749 mmHg 61%
17:00 +21°C° 0 mm 8 mps 749 mmHg 63%
18:00 +18°C° 0 mm 7 mps 749 mmHg 65%
19:00 +17°C° 0 mm 7 mps 749 mmHg 68%
20:00 +16°C° 0 mm 6 mps 749 mmHg 71%
21:00 +15°C° 0 mm 6 mps 749 mmHg 75%
22:00 +14°C° 0 mm 6 mps 749 mmHg 79%
23:00 +13°C° 0 mm 6 mps 749 mmHg 78%

13 May, Thursday

Time Temperature Precipitation Wind Pressure Humidity
00:00 +11°C° 0 mm 6 mps 749 mmHg 77%
01:00 +10°C° 0 mm 6 mps 749 mmHg 76%
02:00 +10°C° 0 mm 6 mps 749 mmHg 77%
03:00 +9°C° 0 mm 6 mps 749 mmHg 79%
04:00 +9°C° 0 mm 6 mps 749 mmHg 80%
05:00 +9°C° 0 mm 7 mps 749 mmHg 77%
06:00 +10°C° 0 mm 7 mps 750 mmHg 75%
07:00 +11°C° 0 mm 8 mps 750 mmHg 72%
08:00 +12°C° 0 mm 8 mps 749 mmHg 67%
09:00 +15°C° 0 mm 8 mps 749 mmHg 62%
10:00 +16°C° 0 mm 9 mps 749 mmHg 58%
11:00 +16°C° 0 mm 8 mps 749 mmHg 59%
12:00 +16°C° 0 mm 7 mps 749 mmHg 61%
13:00 +16°C° 0 mm 7 mps 749 mmHg 63%
14:00 +16°C° 0.1 mm 7 mps 748 mmHg 65%
15:00 +16°C° 0.1 mm 6 mps 748 mmHg 67%
16:00 +16°C° 0.1 mm 6 mps 748 mmHg 69%
17:00 +15°C° 0.1 mm 5 mps 748 mmHg 73%
18:00 +14°C° 0.1 mm 4 mps 748 mmHg 77%
19:00 +13°C° 0.1 mm 3 mps 747 mmHg 82%
20:00 +13°C° 0 mm 2 mps 747 mmHg 84%
21:00 +12°C° 0 mm 2 mps 747 mmHg 87%
22:00 +10°C° 0 mm 2 mps 747 mmHg 90%
23:00 +10°C° 0 mm 2 mps 747 mmHg 90%
Show more

We Need Your Consent

Meteoprog and our Service Providers may store and access personal data such as cookies, device identifiers or other similar technologies on your device and process such data to personalise content and ads, as well as provide social media features and to analyse the traffic.

  • Store and/or access information on your device

    Cookies, device identifiers or other information can be stored or accessed on your device for the purposes indicated above.

  • Personalised ads and content, ad and content measurement, audience insights, and products development

    Ads and content can be personalised based on a profile. More data can be added to better personalise ads and content. Ad and content performance can be measured. Insights about the audience who saw the ads and content can be derived. Such data can be used to develop or improve user’s experience, systems and software.

By clicking ‘I Agree’ you will allow the use of indicated cookies, device identifiers, web beacons or other similar technologies. Your settings can be changed in the browser on your device.

For certain purposes, legitimate interests may be relied on, rather than consent. You can read more about this in our Privacy and Cookie Policy.